OBJECT R, 68431

Orbit data source: Space-Track

You're viewing an Uncataloged Satellite

Recently launched and/or uncataloged satellites may have evolving metadata. Metadata may include but not limited to: Owner, Maufacturer, Bus, Motor, and Mission.

OBJECT R, 68431 is a satellite in SSO that was launched on Mon, 30 Mar 2026 UTC via an FALCON 9 launch vehicle from the Air Force Western Test Range (AFWTR). Unknown objects in Earth's orbit typically refer to objects detected orbiting the Earth but have not yet been identified or cataloged. These objects could be anything from previously untracked satellites, spent rocket stages, debris from satellite collisions, or even natural meteoroids temporarily captured by Earth's gravity.

Loading next visibility...
Identifier
68431, 2026-067R
Orbit
SSO
Country
Flag of TBDTBD
Related business
Flag of DKAarhus University (DK)
Manufacturer
Aarhus U.
Mission
Operational spacecraft
Bus & Motor
CUBESAT 3U, Unknown motor
Mass
~5 kg wet, ~5 kg dry
Launch date (UTC)
2026-03-30 (1 month ago)
Launch vehicle
FALCON 9
Launch site
Air Force Western Test Range (AFWTR)
Object type
Unknown
Shape & HBR
Unknown shape, 1.1 m
Radar Cross Section
RCS unknown

Expand to show TLE details & history
Last TLE update: 11 hours ago

TLE from 11 hours ago
0 OBJECT R
1 68431U 26067R   26127.13577199  .00007037  00000-0  34442-3 0  9990
2 68431  97.4583  86.2517 0004186 116.4508 243.7156 15.18485444  5718
Epoch: 2026-05-07T03:15Z
TLE epoch observation values (Epoch: 2026-05-07T03:15:30.699Z)
Latitude
-0.00005°
Longitude
172.38754°
Altitude
514.782 km
Speed
7.606 km/s
True Right ascension
05h 45m 00s
True Declination
0° 00' 00"
Sunlit
Object was in daylight at epoch
Visualization orbit readout
Latitude
Unknown
Longitude
Unknown
Altitude
Unknown
Speed
Unknown
Apparent Right ascension
Unknown
Apparent Declination
Unknown
Sunlit
N/A
Visualization observer readout
Local Sidereal Time
22:03:50
Azimuth
Unknown
Elevation
Unknown
Doppler factor
Unknown
Orbital elements
Apogee altitude
510.27 km
Perigee altitude
504.505 km
Semi-major axis
6,885.524 km
Eccentricity
0.00042
Inclination
97.4583°
RAAN
86.2517°
Arg. of periapsis
116.4508°
True anomaly
243.6726°
Mean anomaly
243.7156°
Eccentric anomaly
243.6941°
Mean motion
3.79872 °/min
Orbital period
94.77 mins
BSTAR
0.00034442
Loading maneuver chart data...
Computing Atmospheric mass density...
Loading historical data...
Loading historical data...
Loading historical data...
Loading historical data...
Loading historical data...
Loading historical data...
Loading historical data...

Documentation

Showing up to 5 results
|